• Join FlightAware (Why Join?)
  • Login
  • US Flag 
08:10AM EDT


 

Airport Tracker/Info


-or-


 

Live Flight TrackerFlight Track Log ✈ UAL4274 ✈ 15-Apr-2013 ✈ KLFT - KIAH

Flight Track Log - Related Links

Times and Time Zones

All times are in EDT time to prevent confusion due to time zone crossing. See the UAL4274 flight status page for this flight to view local times or setup timezone preferences in your user account.

Time Position Orientation Groundspeed Altitude Reporting Facility
EDT Latitude Longitude Course Direction KTS MPH feet Rate Location/Type
01:17PM 30.1269 -92.0947 227° Southwest 214 246 16,000  Level Houston Center
01:18PM 30.0906 -92.1508 233° Southwest 246 283 7,100 -2,940 Descending Houston Center
01:19PM 29.9974 -92.2646 229° Southwest  Level FlightAware Approximate
01:19PM 30.0458 -92.2228 234° Southwest 261 300 10,000  Level Houston Center
01:20PM 29.9450 -92.3345 229° Southwest  Level FlightAware Approximate
01:20PM 29.9933 -92.3028 233° Southwest 310 357 10,800  Level Houston Center
01:21PM 29.9022 -92.4099 249° West  Level FlightAware Approximate
01:21PM 29.9244 -92.4067 233° Southwest 337 388 13,100  Level Houston Center
01:22PM 29.8468 -92.4832 227° Southwest  Level FlightAware Approximate
01:22PM 29.8681 -92.4956 234° Southwest 341 392 14,500  Level Houston Center
01:23PM 29.8086 -92.5875 233° Southwest 353 406 15,600 720 Climbing Houston Center
01:24PM 29.7458 -92.6806 232° Southwest 363 418 16,000 180 Climbing Houston Center
01:25PM 29.6817 -92.7772 233° Southwest 376 433 16,000  Level Houston Center
01:26PM 29.6186 -92.8750 233° Southwest 380 437 16,000  Level Houston Center
01:27PM 29.5456 -92.9850 233° Southwest 365 420 16,000  Level Houston Center
01:28PM 29.4919 -93.0706 234° Southwest 340 391 16,000  Level Houston Center
01:29PM 29.4892 -93.1792 268° West 340 391 16,000  Level Houston Center
01:31PM 29.4933 -93.2808 273° West 344 396 16,000  Level Houston Center
01:32PM 29.4983 -93.4114 273° West 343 395 16,000  Level Houston Center
01:33PM 29.5031 -93.5197 273° West 342 394 16,000  Level Houston Center
01:34PM 29.5069 -93.6267 272° West 338 389 16,000  Level Houston Center
01:35PM 29.5103 -93.7342 272° West 337 388 16,000 -420 Level Houston Center
01:36PM 29.5142 -93.8417 272° West 338 389 15,200 -960 Descending Houston Center
01:36PM 29.5169 -93.9050 273° West 333 383 14,600 -960 Descending Houston Center
01:37PM 29.5194 -93.9464 274° West 332 382 14,200 -1,140 Descending Houston Center
01:37PM 29.5219 -94.0150 272° West 327 376 13,500 -1,200 Descending Houston Center
01:38PM 29.5231 -94.0706 271° West 328 377 13,000 -540 Descending Houston Center
01:38PM 29.5239 -94.1158 271° West 327 376 13,000  Level Houston Center
01:39PM 29.5283 -94.1758 275° West 329 379 13,000 -240 Level Houston Center
01:40PM 29.5308 -94.2850 272° West 337 388 12,700 -600 Descending Houston Center
01:40PM 29.5331 -94.3333 273° West 366 421 12,200 -1,020 Descending Houston Center
01:41PM 29.5569 -94.3983 293° West 365 420 11,700 -960 Descending Houston Center
01:42PM 29.6017 -94.5053 296° West 372 428 10,600 -900 Descending Houston Center
01:43PM 29.6553 -94.6314 296° West 368 423 9,900 -360 Descending Houston Center
01:44PM 29.6994 -94.7350 296° West 364 419 9,900 -240 Level Houston Center
01:45PM 29.7378 -94.8242 296° West 317 365 9,500 -720 Descending Houston Center
01:46PM 29.7722 -94.9058 296° West 289 333 8,500 -1,080 Descending Houston Center
01:47PM 29.8100 -94.9983 295° West 285 328 7,300 -1,200 Descending Houston Center
01:48PM 29.8475 -95.0850 297° West 282 325 6,100 -660 Descending Houston Center
01:49PM 29.8814 -95.1650 296° West 284 327 6,000 -60 Descending Houston Center
01:50PM 29.8986 -95.2522 283° West 277 319 6,000  Level Houston Center
01:51PM 29.9003 -95.3389 271° West 270 311 6,000  Level Houston Center
01:52PM 29.9000 -95.4258 270° West 236 272 6,000  Level Houston Center
01:53PM 29.9003 -95.5003 270° West 234 269 6,000  Level Houston Center
01:54PM 29.9011 -95.5775 271° West 236 272 6,000  Level Houston Center
01:55PM 29.9008 -95.6569 270° West 237 273 6,000  Level Houston Center
01:56PM 29.9306 -95.7208 298° West 250 288 6,000 -540 Level Houston Center
01:57PM 29.9778 -95.6600 48° Northeast 253 291 5,000 -1,020 Descending Houston Center
01:58PM 29.9928 -95.5931 75° East 201 231 4,000 -1,020 Descending Houston Center